| time (UTC) | temp F | wind direction | speed knots | gust knots | rain 1hr in | rain 24hr in | rain mn in | humidity % | barometer mb |
| 20260507144908 | 73 | 231 | 7.0 | 14.8 | 0.00 | 0.00 | 0.00 | 46 | 1008.3 |
| 20260507144409 | 74 | 236 | 7.0 | 13.9 | 0.00 | 0.00 | 0.00 | 45 | 1008.4 |
| 20260507143909 | 73 | 230 | 6.1 | 13.9 | 0.00 | 0.00 | 0.00 | 45 | 1008.3 |
| 20260507143409 | 73 | 228 | 6.1 | 13.9 | 0.00 | 0.00 | 0.00 | 47 | 1008.4 |
| 20260507142910 | 73 | 240 | 6.1 | 13.0 | 0.00 | 0.00 | 0.00 | 46 | 1008.4 |
| 20260507142408 | 73 | 235 | 7.8 | 18.2 | 0.00 | 0.00 | 0.00 | 47 | 1008.4 |
| 20260507141909 | 72 | 233 | 7.8 | 18.2 | 0.00 | 0.00 | 0.00 | 48 | 1008.3 |
| 20260507141408 | 73 | 243 | 5.2 | 11.3 | 0.00 | 0.00 | 0.00 | 47 | 1008.5 |
| 20260507140909 | 73 | 243 | 7.0 | 13.0 | 0.00 | 0.00 | 0.00 | 49 | 1008.4 |
| 20260507140408 | 72 | 231 | 8.7 | 14.8 | 0.00 | 0.00 | 0.00 | 49 | 1008.5 |
| 20260507135908 | 72 | 225 | 8.7 | 14.8 | 0.00 | 0.00 | 0.00 | 49 | 1008.6 |
| 20260507134909 | 72 | 237 | 7.0 | 17.4 | 0.00 | 0.00 | 0.00 | 51 | 1008.7 |
| 20260507134408 | 72 | 230 | 7.8 | 14.8 | 0.00 | 0.00 | 0.00 | 50 | 1008.7 |
| 20260507133909 | 72 | 222 | 7.0 | 14.8 | 0.00 | 0.00 | 0.00 | 50 | 1008.7 |
| 20260507133408 | 72 | 229 | 7.8 | 14.8 | 0.00 | 0.00 | 0.00 | 49 | 1008.8 |
| 20260507132909 | 71 | 233 | 8.7 | 14.8 | 0.00 | 0.00 | 0.00 | 50 | 1008.9 |
| 20260507132409 | 71 | 228 | 8.7 | 14.8 | 0.00 | 0.00 | 0.00 | 49 | 1009.0 |
| 20260507131909 | 71 | 229 | 9.6 | 19.1 | 0.00 | 0.00 | 0.00 | 51 | 1008.9 |
| 20260507131408 | 71 | 233 | 8.7 | 19.1 | 0.00 | 0.00 | 0.00 | 51 | 1009.0 |
| 20260507130909 | 71 | 232 | 7.0 | 16.5 | 0.00 | 0.00 | 0.00 | 50 | 1009.0 |
| 20260507130408 | 71 | 223 | 7.0 | 16.5 | 0.00 | 0.00 | 0.00 | 52 | 1009.0 |
| 20260507125909 | 71 | 206 | 6.1 | 13.9 | 0.00 | 0.00 | 0.00 | 51 | 1009.0 |
| 20260507125409 | 71 | 198 | 7.0 | 13.9 | 0.00 | 0.00 | 0.00 | 53 | 1009.1 |
| 20260507124908 | 71 | 200 | 7.0 | 13.9 | 0.00 | 0.00 | 0.00 | 52 | 1009.1 |
| 20260507124409 | 71 | 217 | 7.8 | 16.5 | 0.00 | 0.00 | 0.00 | 54 | 1009.3 |
| 20260507123908 | 70 | 227 | 7.8 | 16.5 | 0.00 | 0.00 | 0.00 | 53 | 1009.3 |
| 20260507122910 | 71 | 219 | 7.8 | 17.4 | 0.00 | 0.00 | 0.00 | 53 | 1009.4 |
| 20260507122409 | 71 | 228 | 8.7 | 16.5 | 0.00 | 0.00 | 0.00 | 53 | 1009.4 |
| 20260507121408 | 71 | 222 | 7.8 | 15.6 | 0.00 | 0.00 | 0.00 | 53 | 1009.4 |
| 20260507120910 | 72 | 207 | 7.0 | 14.8 | 0.00 | 0.00 | 0.00 | 54 | 1009.4 |
| 20260507120408 | 72 | 194 | 7.0 | 14.8 | 0.00 | 0.00 | 0.00 | 53 | 1009.4 |
| 20260507115908 | 72 | 185 | 7.0 | 14.8 | 0.00 | 0.00 | 0.00 | 53 | 1009.3 |
| 20260507115408 | 71 | 182 | 7.0 | 14.8 | 0.00 | 0.00 | 0.00 | 52 | 1009.4 |
| 20260507114908 | 71 | 193 | 7.0 | 13.9 | 0.00 | 0.00 | 0.00 | 53 | 1009.5 |
| 20260507114409 | 71 | 199 | 7.0 | 13.9 | 0.00 | 0.00 | 0.00 | 54 | 1009.4 |
| 20260507113410 | 70 | 201 | 6.1 | 13.9 | 0.00 | 0.00 | 0.00 | 56 | 1009.5 |
| 20260507112908 | 70 | 201 | 5.2 | 13.9 | 0.00 | 0.00 | 0.00 | 58 | 1009.5 |
| 20260507112408 | 69 | 195 | 5.2 | 13.9 | 0.00 | 0.00 | 0.00 | 59 | 1009.5 |
| 20260507111908 | 69 | 203 | 6.1 | 15.6 | 0.00 | 0.00 | 0.00 | 59 | 1009.6 |
| 20260507111409 | 69 | 205 | 5.2 | 15.6 | 0.00 | 0.00 | 0.00 | 59 | 1009.6 |
| 20260507105909 | 69 | 207 | 5.2 | 10.4 | 0.00 | 0.00 | 0.00 | 59 | 1009.5 |
| 20260507105408 | 69 | 208 | 5.2 | 9.6 | 0.00 | 0.00 | 0.00 | 61 | 1009.6 |
| 20260507104908 | 69 | 208 | 5.2 | 12.2 | 0.00 | 0.00 | 0.00 | 60 | 1009.6 |
| 20260507104410 | 69 | 209 | 5.2 | 12.2 | 0.00 | 0.00 | 0.00 | 59 | 1009.6 |
| 20260507103908 | 69 | 205 | 5.2 | 13.9 | 0.00 | 0.00 | 0.00 | 59 | 1009.7 |
| 20260507103410 | 69 | 193 | 4.3 | 13.9 | 0.00 | 0.00 | 0.00 | 58 | 1009.7 |
| 20260507102908 | 70 | 196 | 4.3 | 12.2 | 0.00 | 0.00 | 0.00 | 60 | 1009.8 |
| 20260507102408 | 69 | 216 | 5.2 | 12.2 | 0.00 | 0.00 | 0.00 | 62 | 1009.8 |
| 20260507101908 | 69 | 214 | 5.2 | 12.2 | 0.00 | 0.00 | 0.00 | 62 | 1009.8 |
| 20260507101409 | 69 | 201 | 4.3 | 11.3 | 0.00 | 0.00 | 0.00 | 61 | 1009.7 |
| 20260507100909 | 69 | 187 | 5.2 | 11.3 | 0.00 | 0.00 | 0.00 | 63 | 1009.9 |
| 20260507095908 | 67 | 205 | 6.1 | 13.9 | 0.00 | 0.00 | 0.00 | 66 | 1009.8 |
| 20260507094909 | 67 | 178 | 6.1 | 13.9 | 0.00 | 0.00 | 0.00 | 65 | 1009.9 |
| 20260507094408 | 67 | 177 | 6.1 | 13.9 | 0.00 | 0.00 | 0.00 | 63 | 1010.0 |
| 20260507093909 | 68 | 174 | 5.2 | 12.2 | 0.00 | 0.00 | 0.00 | 65 | 1009.8 |
| 20260507093409 | 67 | 165 | 4.3 | 11.3 | 0.00 | 0.00 | 0.00 | 66 | 1009.8 |
| 20260507092908 | 68 | 170 | 5.2 | 15.6 | 0.00 | 0.00 | 0.00 | 66 | 1010.0 |
| 20260507092408 | 67 | 166 | 7.0 | 15.6 | 0.00 | 0.00 | 0.00 | 67 | 1009.9 |
| 20260507091408 | 67 | 164 | 7.0 | 12.2 | 0.00 | 0.00 | 0.00 | 66 | 1010.0 |
| 20260507090908 | 67 | 162 | 6.1 | 12.2 | 0.00 | 0.00 | 0.00 | 68 | 1009.9 |
| 20260507085908 | 65 | 165 | 6.1 | 15.6 | 0.00 | 0.00 | 0.00 | 72 | 1009.9 |
| 20260507084409 | 64 | 175 | 6.1 | 13.0 | 0.00 | 0.00 | 0.00 | 73 | 1009.9 |
| 20260507083909 | 64 | 166 | 6.1 | 13.0 | 0.00 | 0.00 | 0.00 | 73 | 1009.9 |
| 20260507083408 | 65 | 156 | 6.1 | 13.9 | 0.00 | 0.00 | 0.00 | 73 | 1009.8 |
| 20260507082908 | 65 | 158 | 6.1 | 13.9 | 0.00 | 0.00 | 0.00 | 73 | 1009.7 |
| 20260507082409 | 64 | 176 | 6.1 | 12.2 | 0.00 | 0.00 | 0.00 | 74 | 1009.7 |
| 20260507081909 | 64 | 174 | 6.1 | 13.0 | 0.00 | 0.00 | 0.00 | 73 | 1009.8 |
| 20260507081409 | 63 | 167 | 6.1 | 13.0 | 0.00 | 0.00 | 0.00 | 73 | 1009.8 |
| 20260507080408 | 63 | 166 | 5.2 | 12.2 | 0.00 | 0.00 | 0.00 | 73 | 1009.8 |
| 20260507075908 | 63 | 160 | 6.1 | 12.2 | 0.00 | 0.00 | 0.00 | 74 | 1009.8 |
| 20260507075408 | 62 | 158 | 6.1 | 13.0 | 0.00 | 0.00 | 0.00 | 74 | 1009.7 |
| 20260507074908 | 62 | 158 | 5.2 | 13.0 | 0.00 | 0.00 | 0.00 | 74 | 1009.7 |
| 20260507074408 | 62 | 159 | 5.2 | 12.2 | 0.00 | 0.00 | 0.00 | 74 | 1009.6 |
| 20260507073408 | 61 | 158 | 5.2 | 11.3 | 0.00 | 0.00 | 0.00 | 74 | 1009.5 |
| 20260507072909 | 61 | 151 | 4.3 | 10.4 | 0.00 | 0.00 | 0.00 | 75 | 1009.5 |
| 20260507072409 | 61 | 147 | 3.5 | 7.8 | 0.00 | 0.00 | 0.00 | 75 | 1009.4 |
| 20260507071907 | 60 | 143 | 3.5 | 8.7 | 0.00 | 0.00 | 0.00 | 75 | 1009.3 |
| 20260507071408 | 60 | 138 | 3.5 | 8.7 | 0.00 | 0.00 | 0.00 | 76 | 1009.3 |
| 20260507070908 | 59 | 142 | 3.5 | 7.8 | 0.00 | 0.00 | 0.00 | 76 | 1009.3 |
| 20260507070408 | 59 | 142 | 3.5 | 7.8 | 0.00 | 0.00 | 0.00 | 76 | 1009.3 |
| 20260507065908 | 58 | 137 | 3.5 | 7.8 | 0.00 | 0.00 | 0.00 | 76 | 1009.2 |
| 20260507065408 | 58 | 136 | 2.6 | 7.0 | 0.00 | 0.00 | 0.00 | 76 | 1009.2 |
| 20260507064908 | 58 | 131 | 2.6 | 7.0 | 0.00 | 0.00 | 0.00 | 76 | 1009.2 |
| 20260507064409 | 57 | 130 | 2.6 | 7.0 | 0.00 | 0.00 | 0.00 | 76 | 1009.2 |
| 20260507063908 | 57 | 135 | 2.6 | 7.0 | 0.00 | 0.00 | 0.00 | 76 | 1009.2 |
| 20260507063408 | 57 | 136 | 2.6 | 7.0 | 0.00 | 0.00 | 0.00 | 76 | 1009.2 |
| 20260507062907 | 57 | 134 | 1.7 | 7.0 | 0.00 | 0.00 | 0.00 | 77 | 1009.2 |
| 20260507062408 | 56 | 136 | 1.7 | 7.0 | 0.00 | 0.00 | 0.00 | 78 | 1009.1 |
| 20260507061908 | 56 | 140 | 2.6 | 7.0 | 0.00 | 0.00 | 0.00 | 78 | 1009.1 |
| 20260507060908 | 56 | 128 | 1.7 | 7.8 | 0.00 | 0.00 | 0.00 | 79 | 1008.9 |
| 20260507060408 | 55 | 110 | 2.6 | 5.2 | 0.00 | 0.00 | 0.00 | 80 | 1008.9 |
| 20260507055909 | 55 | 108 | 1.7 | 5.2 | 0.00 | 0.00 | 0.00 | 80 | 1008.7 |
| 20260507055408 | 55 | 106 | 1.7 | 3.5 | 0.00 | 0.00 | 0.00 | 81 | 1008.8 |
| 20260507054909 | 55 | 109 | 2.6 | 5.2 | 0.00 | 0.00 | 0.00 | 81 | 1008.8 |
| 20260507054408 | 55 | 120 | 1.7 | 5.2 | 0.00 | 0.00 | 0.00 | 81 | 1008.8 |
| 20260507053909 | 55 | 135 | 0.9 | 3.5 | 0.00 | 0.00 | 0.00 | 81 | 1008.9 |
| 20260507052908 | 55 | 139 | 0.9 | 2.6 | 0.00 | 0.00 | 0.00 | 81 | 1008.8 |
| 20260507052409 | 56 | 140 | 0.0 | 2.6 | 0.00 | 0.00 | 0.00 | 80 | 1008.8 |
| 20260507051908 | 56 | 0 | 0.0 | 0.0 | 0.00 | 0.00 | 0.00 | 80 | 1008.9 |
| 20260507051407 | 56 | 0 | 0.0 | 0.0 | 0.00 | 0.00 | 0.00 | 80 | 1008.8 |
| 20260507050908 | 56 | 146 | 0.0 | 2.6 | 0.00 | 0.00 | 0.00 | 79 | 1008.7 |
| 20260507045907 | 56 | 146 | 0.9 | 3.5 | 0.00 | 0.00 | 0.00 | 79 | 1008.7 |
| 20260507045408 | 56 | 146 | 0.9 | 3.5 | 0.00 | 0.00 | 0.00 | 79 | 1008.6 |
| 20260507044907 | 56 | 147 | 0.0 | 2.6 | 0.00 | 0.00 | 0.00 | 80 | 1008.6 |
| 20260507044409 | 56 | 147 | 0.0 | 2.6 | 0.00 | 0.00 | 0.00 | 80 | 1008.5 |
| 20260507043408 | 56 | 150 | 0.9 | 5.2 | 0.00 | 0.00 | 0.00 | 80 | 1008.4 |
| 20260507042908 | 56 | 146 | 1.7 | 5.2 | 0.00 | 0.00 | 0.00 | 80 | 1008.4 |
| 20260507041909 | 57 | 142 | 1.7 | 4.3 | 0.00 | 0.00 | 0.00 | 81 | 1008.3 |
| 20260507041407 | 57 | 143 | 1.7 | 4.3 | 0.00 | 0.00 | 0.00 | 81 | 1008.3 |
| 20260507040908 | 57 | 156 | 1.7 | 4.3 | 0.00 | 0.00 | 0.00 | 81 | 1008.3 |
| 20260507040409 | 57 | 165 | 1.7 | 5.2 | 0.00 | 0.00 | 0.00 | 81 | 1008.3 |
| 20260507035907 | 57 | 164 | 2.6 | 5.2 | 0.00 | 0.00 | 0.00 | 82 | 1008.3 |
| 20260507035408 | 57 | 159 | 2.6 | 7.0 | 0.00 | 0.00 | 0.00 | 81 | 1008.2 |
| 20260507034908 | 57 | 154 | 2.6 | 7.0 | 0.00 | 0.00 | 0.00 | 82 | 1008.2 |
| 20260507034408 | 57 | 153 | 1.7 | 5.2 | 0.00 | 0.00 | 0.00 | 82 | 1008.3 |
| 20260507033907 | 57 | 157 | 1.7 | 5.2 | 0.00 | 0.00 | 0.00 | 81 | 1008.3 |
| 20260507033408 | 57 | 160 | 0.9 | 4.3 | 0.00 | 0.00 | 0.00 | 81 | 1008.4 |
| 20260507032908 | 57 | 155 | 0.9 | 4.3 | 0.00 | 0.00 | 0.00 | 81 | 1008.3 |
| 20260507032407 | 57 | 151 | 1.7 | 4.3 | 0.00 | 0.00 | 0.00 | 81 | 1008.3 |
| 20260507031908 | 57 | 152 | 1.7 | 4.3 | 0.00 | 0.00 | 0.00 | 82 | 1008.2 |
| 20260507031407 | 57 | 150 | 1.7 | 4.3 | 0.00 | 0.00 | 0.00 | 82 | 1008.2 |
| 20260507030409 | 57 | 160 | 3.5 | 7.8 | 0.00 | 0.00 | 0.00 | 81 | 1007.9 |
| 20260507025908 | 57 | 160 | 3.5 | 7.8 | 0.00 | 0.00 | 0.00 | 81 | 1007.9 |
| 20260507025408 | 57 | 158 | 3.5 | 7.0 | 0.00 | 0.00 | 0.00 | 81 | 1007.9 |
| 20260507024907 | 57 | 154 | 3.5 | 7.0 | 0.00 | 0.00 | 0.00 | 81 | 1008.0 |
| 20260507024408 | 57 | 154 | 2.6 | 7.0 | 0.00 | 0.00 | 0.00 | 81 | 1007.9 |
| 20260507023408 | 58 | 159 | 2.6 | 7.0 | 0.00 | 0.00 | 0.00 | 81 | 1007.9 |
| 20260507022908 | 58 | 161 | 2.6 | 6.1 | 0.00 | 0.00 | 0.00 | 81 | 1007.9 |
| 20260507022408 | 58 | 159 | 2.6 | 7.0 | 0.00 | 0.00 | 0.00 | 81 | 1007.9 |
| 20260507021908 | 58 | 159 | 3.5 | 7.0 | 0.00 | 0.00 | 0.00 | 81 | 1008.0 |
| 20260507021409 | 58 | 159 | 3.5 | 7.8 | 0.00 | 0.00 | 0.00 | 80 | 1007.9 |
| 20260507020907 | 58 | 160 | 3.5 | 7.8 | 0.00 | 0.00 | 0.00 | 80 | 1008.0 |
| 20260507020409 | 58 | 168 | 3.5 | 3.5 | 0.00 | 0.00 | 0.00 | 80 | 1008.1 |
| 20260507014909 | 58 | 157 | 4.3 | 9.6 | 0.00 | 0.00 | 0.00 | 80 | 1008.3 |
| 20260507014409 | 58 | 158 | 3.5 | 7.8 | 0.00 | 0.00 | 0.00 | 80 | 1008.3 |
| 20260507013909 | 58 | 157 | 4.3 | 7.8 | 0.00 | 0.00 | 0.00 | 80 | 1008.3 |
| 20260507013409 | 58 | 155 | 3.5 | 7.8 | 0.00 | 0.00 | 0.00 | 79 | 1008.3 |
| 20260507012410 | 58 | 157 | 4.3 | 7.8 | 0.00 | 0.00 | 0.00 | 79 | 1008.3 |
| 20260507011909 | 58 | 157 | 4.3 | 7.8 | 0.00 | 0.00 | 0.00 | 78 | 1008.4 |
| 20260507010409 | 58 | 160 | 3.5 | 7.8 | 0.00 | 0.00 | 0.00 | 77 | 1008.5 |
| 20260507005910 | 58 | 155 | 3.5 | 7.8 | 0.00 | 0.00 | 0.00 | 77 | 1008.6 |
| 20260507005410 | 58 | 160 | 3.5 | 7.8 | 0.00 | 0.00 | 0.00 | 77 | 1008.7 |
| 20260507004909 | 59 | 165 | 1.7 | 7.8 | 0.00 | 0.00 | 0.00 | 76 | 1008.9 |
| 20260507004409 | 59 | 166 | 1.7 | 4.3 | 0.00 | 0.00 | 0.00 | 76 | 1008.9 |
| 20260507003909 | 59 | 162 | 2.6 | 6.1 | 0.00 | 0.00 | 0.00 | 76 | 1008.7 |
| 20260507003409 | 59 | 156 | 2.6 | 7.8 | 0.00 | 0.00 | 0.00 | 76 | 1008.8 |
| 20260507002409 | 59 | 156 | 3.5 | 6.1 | 0.00 | 0.00 | 0.00 | 75 | 1008.9 |
| 20260507001409 | 59 | 173 | 1.7 | 5.2 | 0.00 | 0.00 | 0.00 | 74 | 1009.0 |
| 20260507000909 | 59 | 173 | 1.7 | 5.2 | 0.00 | 0.00 | 0.00 | 74 | 1009.0 |
| 20260506235909 | 60 | 165 | 2.6 | 5.2 | 0.00 | 0.00 | 0.00 | 74 | 1009.0 |
| 20260506235410 | 60 | 160 | 2.6 | 5.2 | 0.00 | 0.00 | 0.00 | 74 | 1009.2 |
| 20260506234910 | 60 | 164 | 3.5 | 7.0 | 0.00 | 0.00 | 0.00 | 74 | 1009.2 |
| 20260506234408 | 60 | 165 | 4.3 | 7.0 | 0.00 | 0.00 | 0.00 | 74 | 1009.2 |
| 20260506233909 | 60 | 166 | 3.5 | 7.0 | 0.00 | 0.00 | 0.00 | 74 | 1009.2 |
| 20260506233409 | 60 | 174 | 2.6 | 7.8 | 0.00 | 0.00 | 0.00 | 73 | 1009.2 |
| 20260506232909 | 60 | 175 | 1.7 | 7.8 | 0.00 | 0.00 | 0.00 | 72 | 1009.2 |
| 20260506232409 | 61 | 181 | 1.7 | 6.1 | 0.00 | 0.00 | 0.00 | 72 | 1009.2 |
| 20260506231410 | 61 | 190 | 1.7 | 7.0 | 0.00 | 0.00 | 0.00 | 71 | 1009.1 |
| 20260506230910 | 61 | 188 | 0.9 | 4.3 | 0.00 | 0.00 | 0.00 | 71 | 1009.1 |
| 20260506230409 | 61 | 188 | 1.7 | 4.3 | 0.00 | 0.00 | 0.00 | 71 | 1009.2 |
| 20260506225909 | 61 | 189 | 1.7 | 4.3 | 0.00 | 0.00 | 0.00 | 71 | 1009.1 |
| 20260506224909 | 62 | 183 | 1.7 | 6.1 | 0.00 | 0.00 | 0.00 | 71 | 1009.2 |
| 20260506224410 | 62 | 186 | 1.7 | 6.1 | 0.00 | 0.00 | 0.00 | 71 | 1009.1 |
| 20260506223909 | 62 | 182 | 1.7 | 7.0 | 0.00 | 0.00 | 0.00 | 71 | 1009.2 |
| 20260506223409 | 62 | 184 | 3.5 | 7.8 | 0.00 | 0.00 | 0.00 | 71 | 1009.2 |
| 20260506222909 | 62 | 185 | 3.5 | 7.8 | 0.00 | 0.00 | 0.00 | 70 | 1009.2 |
| 20260506222409 | 62 | 188 | 3.5 | 7.8 | 0.00 | 0.00 | 0.00 | 70 | 1009.3 |
| 20260506221910 | 62 | 186 | 2.6 | 7.8 | 0.00 | 0.00 | 0.00 | 70 | 1009.3 |
| 20260506221409 | 62 | 183 | 2.6 | 7.8 | 0.00 | 0.00 | 0.00 | 69 | 1009.2 |
| 20260506220909 | 63 | 185 | 3.5 | 7.8 | 0.00 | 0.00 | 0.00 | 68 | 1009.2 |
| 20260506215909 | 63 | 210 | 1.7 | 6.1 | 0.00 | 0.00 | 0.00 | 67 | 1009.2 |
| 20260506215409 | 63 | 207 | 2.6 | 7.0 | 0.00 | 0.00 | 0.00 | 67 | 1009.1 |
| 20260506213409 | 64 | 209 | 3.5 | 7.0 | 0.00 | 0.00 | 0.00 | 64 | 1009.2 |
| 20260506212910 | 64 | 202 | 3.5 | 8.7 | 0.00 | 0.00 | 0.00 | 63 | 1009.2 |
| 20260506212409 | 64 | 212 | 3.5 | 8.7 | 0.00 | 0.00 | 0.00 | 63 | 1009.1 |
| 20260506211910 | 64 | 222 | 3.5 | 7.8 | 0.00 | 0.00 | 0.00 | 62 | 1009.1 |
| 20260506211408 | 64 | 225 | 4.3 | 7.8 | 0.00 | 0.00 | 0.00 | 62 | 1009.1 |
| 20260506210409 | 64 | 226 | 3.5 | 7.0 | 0.00 | 0.00 | 0.00 | 60 | 1008.9 |
| 20260506205910 | 65 | 226 | 3.5 | 7.0 | 0.00 | 0.00 | 0.00 | 59 | 1008.8 |
| 20260506205408 | 65 | 214 | 2.6 | 6.1 | 0.00 | 0.00 | 0.00 | 59 | 1008.6 |
| 20260506204909 | 65 | 216 | 2.6 | 6.1 | 0.00 | 0.00 | 0.00 | 59 | 1008.7 |
| 20260506204409 | 65 | 227 | 3.5 | 7.0 | 0.00 | 0.00 | 0.00 | 58 | 1008.7 |
| 20260506203909 | 65 | 225 | 3.5 | 7.0 | 0.00 | 0.00 | 0.00 | 58 | 1008.6 |
| 20260506203409 | 65 | 228 | 3.5 | 6.1 | 0.00 | 0.00 | 0.00 | 57 | 1008.6 |
| 20260506202409 | 66 | 233 | 4.3 | 8.7 | 0.00 | 0.00 | 0.00 | 56 | 1008.3 |
| 20260506201409 | 66 | 229 | 5.2 | 9.6 | 0.00 | 0.00 | 0.00 | 55 | 1008.3 |
| 20260506200908 | 66 | 229 | 5.2 | 9.6 | 0.00 | 0.00 | 0.00 | 54 | 1008.2 |
| 20260506200408 | 67 | 232 | 4.3 | 9.6 | 0.00 | 0.00 | 0.00 | 54 | 1008.3 |
| 20260506195910 | 67 | 236 | 4.3 | 9.6 | 0.00 | 0.00 | 0.00 | 54 | 1008.1 |
| 20260506194908 | 67 | 233 | 3.5 | 7.8 | 0.00 | 0.00 | 0.00 | 53 | 1007.9 |
| 20260506192413 | 69 | 239 | 6.1 | 10.4 | 0.00 | 0.00 | 0.00 | 50 | 1012.7 |
| 20260506191913 | 69 | 240 | 6.1 | 10.4 | 0.00 | 0.00 | 0.00 | 50 | 1012.7 |
| 20260506190913 | 70 | 237 | 3.5 | 9.6 | 0.00 | 0.00 | 0.00 | 49 | 1012.7 |
| 20260506190413 | 70 | 246 | 5.2 | 9.6 | 0.00 | 0.00 | 0.00 | 48 | 1012.7 |
| 20260506185914 | 70 | 243 | 5.2 | 10.4 | 0.00 | 0.00 | 0.00 | 48 | 1012.7 |
| 20260506185413 | 70 | 235 | 5.2 | 10.4 | 0.00 | 0.00 | 0.00 | 48 | 1012.7 |
| 20260506184914 | 71 | 251 | 4.3 | 9.6 | 0.00 | 0.00 | 0.00 | 47 | 1012.7 |
| 20260506184413 | 71 | 247 | 6.1 | 11.3 | 0.00 | 0.00 | 0.00 | 47 | 1012.7 |
| 20260506183914 | 72 | 240 | 7.0 | 11.3 | 0.00 | 0.00 | 0.00 | 47 | 1012.7 |
| 20260506183413 | 72 | 253 | 5.2 | 10.4 | 0.00 | 0.00 | 0.00 | 46 | 1012.7 |
| 20260506182913 | 72 | 266 | 5.2 | 12.2 | 0.00 | 0.00 | 0.00 | 45 | 1012.7 |
| 20260506182415 | 73 | 266 | 4.3 | 12.2 | 0.00 | 0.00 | 0.00 | 43 | 1012.7 |
| 20260506181913 | 74 | 280 | 4.3 | 8.7 | 0.00 | 0.00 | 0.00 | 42 | 1012.7 |
| 20260506181414 | 74 | 308 | 4.3 | 10.4 | 0.00 | 0.00 | 0.00 | 41 | 1012.7 |
| 20260506180913 | 74 | 261 | 4.3 | 10.4 | 0.00 | 0.00 | 0.00 | 40 | 1012.7 |
| 20260506175915 | 75 | 257 | 5.2 | 12.2 | 0.00 | 0.00 | 0.00 | 39 | 1012.7 |
| 20260506175414 | 75 | 257 | 4.3 | 12.2 | 0.00 | 0.00 | 0.00 | 38 | 1012.7 |
| 20260506174913 | 75 | 256 | 5.2 | 9.6 | 0.00 | 0.00 | 0.00 | 38 | 1012.7 |
| 20260506174413 | 76 | 254 | 4.3 | 10.4 | 0.00 | 0.00 | 0.00 | 37 | 1012.7 |
| 20260506173913 | 76 | 245 | 4.3 | 10.4 | 0.00 | 0.00 | 0.00 | 38 | 1012.7 |
| 20260506172914 | 76 | 222 | 4.3 | 10.4 | 0.00 | 0.00 | 0.00 | 38 | 1012.7 |
| 20260506172413 | 76 | 225 | 4.3 | 9.6 | 0.00 | 0.00 | 0.00 | 37 | 1012.7 |
| 20260506171913 | 76 | 240 | 3.5 | 9.6 | 0.00 | 0.00 | 0.00 | 37 | 1012.7 |
| 20260506170914 | 76 | 229 | 5.2 | 11.3 | 0.00 | 0.00 | 0.00 | 38 | 1012.7 |
| 20260506165914 | 76 | 244 | 5.2 | 10.4 | 0.00 | 0.00 | 0.00 | 38 | 1012.7 |
| 20260506165413 | 76 | 262 | 4.3 | 10.4 | 0.00 | 0.00 | 0.00 | 37 | 1012.7 |
| 20260506164913 | 77 | 271 | 3.5 | 10.4 | 0.00 | 0.00 | 0.00 | 37 | 1012.7 |
| 20260506164413 | 77 | 240 | 4.3 | 11.3 | 0.00 | 0.00 | 0.00 | 37 | 1012.7 |
| 20260506163913 | 76 | 253 | 5.2 | 11.3 | 0.00 | 0.00 | 0.00 | 36 | 1012.7 |
| 20260506163413 | 77 | 256 | 5.2 | 10.4 | 0.00 | 0.00 | 0.00 | 36 | 1012.7 |
| 20260506162913 | 77 | 233 | 5.2 | 11.3 | 0.00 | 0.00 | 0.00 | 36 | 1012.7 |
| 20260506161914 | 77 | 242 | 6.1 | 13.0 | 0.00 | 0.00 | 0.00 | 36 | 1012.7 |
| 20260506160913 | 78 | 241 | 6.1 | 13.0 | 0.00 | 0.00 | 0.00 | 35 | 1012.7 |
| 20260506155414 | 78 | 178 | 1.7 | 5.2 | 0.00 | 0.00 | 0.00 | 34 | 1012.7 |
| 20260506154913 | 78 | 145 | 1.7 | 3.5 | 0.00 | 0.00 | 0.00 | 32 | 1012.7 |
| 20260506154413 | 77 | 189 | 2.6 | 5.2 | 0.00 | 0.00 | 0.00 | 33 | 1012.7 |
| 20260506153914 | 77 | 186 | 3.5 | 7.8 | 0.00 | 0.00 | 0.00 | 33 | 1012.7 |
| 20260506153414 | 78 | 161 | 3.5 | 8.7 | 0.00 | 0.00 | 0.00 | 32 | 1012.7 |
| 20260506152413 | 78 | 202 | 1.7 | 7.0 | 0.00 | 0.00 | 0.00 | 32 | 1012.7 |
| 20260506151912 | 77 | 297 | 1.7 | 3.5 | 0.00 | 0.00 | 0.00 | 31 | 1012.7 |
| 20260506151414 | 78 | 339 | 1.7 | 3.5 | 0.00 | 0.00 | 0.00 | 31 | 1012.7 |
| 20260506150914 | 77 | 6 | 1.7 | 2.6 | 0.00 | 0.00 | 0.00 | 29 | 1012.7 |
| 20260506150413 | 77 | 312 | 1.7 | 4.3 | 0.00 | 0.00 | 0.00 | 30 | 1012.7 |
| 20260506145913 | 77 | 266 | 2.6 | 7.8 | 0.00 | 0.00 | 0.00 | 30 | 1012.7 |
| 20260506145414 | 77 | 216 | 2.6 | 7.8 | 0.00 | 0.00 | 0.00 | 31 | 1012.7 |